Location: Newark
(48.6676°N, 6.1917°E)
Time: 22:44:52
(UTC+00:00)

N. Korean satellite - Pass Details

Date: 13 December 2019
Orbit: 454 x 507 km, 97.2° (Epoch: 21 January)

Event Time Altitude Azimuth Distance (km) Brightness Sun altitude
Rises 05:16:29 0° 16° (NNE) 2,545 10.3 -19.2°
Reaches altitude 10° 05:18:37 10° 22° (NNE) 1,652 9.3 -18.8°
Maximum altitude 05:22:05 52° 99° (E) 589 7.3 -18.3°
Drops below altitude 10° 05:25:28 10° 178° (S) 1,610 9.4 -17.7°
Sets 05:27:31 0° 183° (S) 2,473 10.3 -17.4°
